User: anonymous   Login
Location: Unspecified
(0.0000°N, 0.0000°E)
Time: 07:22:55
(UTC+00:00)
Language:

Kosmos-2239 - Orbit

View from above orbital plane
View from above orbital plane
View from above satellite
View from above satellite

Ground track
Ground track

The orbit is defined by the following mean orbital elements,

1 22590U          26106.97521090 +.00000000 +00000-0 +43538-4 0 00006
2 22590  82.9345 186.2095 0024492 103.9660  69.6361 13.75630574    00
Epoch (UTC): 16 April 2026 23:24:18
Eccentricity: 0.0024492
inclination: 82.9345°
perigee height: 961 km
apogee height: 997 km
right ascension of ascending node: 186.2095°
argument of perigee: 103.9660°
revolutions per day: 13.75630574
mean anomaly at epoch: 69.6361°

The dashed part of the orbit path shows where the satellite is in the earth's shadow,  

DLR